SCP
-0 0 1 1 1 0 0 0 0 0 0 0 0 0 0 0 0 0 0 0 0 0 0 0 0 0 0 0 0 0 0 0 1 0 0 0 0 0 0 0 0 0 0
0 0 2 2 1 0 0 0 0 0 0 0 0 0 0 0 0 0 0 0 0 0 0 0 0 0 0 0 0 0 0 0 0 1 0 0 0 0 0 0 0 0 0
0 0 1 3 1 0 0 0 0 0 0 0 0 0 0 0 0 0 0 0 0 0 0 0 0 0 0 0 0 0 0 0 0 0 0 0 0 0 0 0 0 0 0
0 0 0 2 2 1 0 0 0 0 0 0 0 0 0 0 0 0 0 0 0 0 0 0 0 0 0 0 0 0 0 0 0 0 0 0 0 0 0 0 0 0 0
0 0 0 1 1 1 0 0 1 0 0 0 0 0 0 0 0 0 0 0 0 0 0 0 0 0 0 0 0 0 0 0 0 0 0 0 0 0 0 0 0 0 0
0 0 0 1 1 1 0 1 1 0 0 0 0 0 0 0 0 0 0 0 0 0 0 0 0 0 0 0 0 1 0 0 0 0 0 0 0 0 0 0 0 0 0
0 0 0 1 1 1 1 1 1 0 0 0 0 0 0 0 0 0 0 0 0 0 0 0 0 0 0 0 0 1 0 0 0 0 0 0 0 0 0 -0 0 0 0
0 0 0 0 1 1 1 1 0 0 0 0 0 0 0 0 0 0 0 0 0 0 0 0 0 0 1 1 1 1 0 0 0 0 0 0 0 0 0 0 0 0 0
0 0 0 0 0 0 0 0 0 0 0 0 0 0 0 0 0 0 0 0 0 0 0 0 0 0 1 1 1 1 0 0 0 0 0 0 0 0 0 0 0 0 0
0 0 0 0 0 0 0 0 0 0 0 0 0 0 0 0 0 0 0 0 0 0 0 0 0 0 0 1 1 1 0 0 0 0 0 0 0 0 0 0 0 0 0
0 0 0 0 0 0 0 0 0 0 0 0 0 0 0 0 0 0 0 0 0 0 0 0 0 0 0 1 1 1 0 1 0 1 0 0 0 0 0 0 0 0 -0
0 0 0 0 0 0 0 0 0 0 0 0 0 0 0 0 0 0 0 0 0 0 0 0 0 0 0 1 1 1 1 0 1 0 0 0 0 0 0 0 0 0 0
0 0 0 0 0 0 0 0 0 0 0 0 0 0 0 -0 0 0 0 0 0 0 0 0 0 0 0 1 1 1 1 0 1 0 0 0 0 0 0 0 0 0 0
0 0 0 0 0 0 0 0 0 0 0 0 0 0 0 0 0 0 0 0 0 0 0 0 0 0 0 0 1 1 1 1 1 0 0 0 0 -0 -0 0 0 0 0
0 0 0 0 0 0 0 0 0 0 0 0 0 0 0 -0 -0 -0 0 0 0 0 0 0 0 0 0 0 1 1 1 0 1 0 1 0 0 -0 0 0 -0 -0 -0
0 0 0 0 0 0 0 0 0 0 0 0 0 0 0 -0 0 0 0 0 0 0 0 0 0 0 0 1 1 1 0 1 1 0 0 0 0 -0 -0 -0 -0 -0 -0
0 0 0 0 0 0 0 0 0 0 0 0 0 0 0 0 0 0 0 0 0 0 0 0 0 0 0 0 0 1 1 0 0 0 0 0 0 -0 0 -0 0 -0 -0
0 0 0 0 0 0 0 0 0 0 0 0 0 0 0 0 0 0 0 0 0 0 0 0 0 0 0 0 1 1 1 1 0 0 0 0 0 -0 -0 0 0 0 0
0 0 0 0 0 0 0 0 0 0 0 0 0 0 0 0 -0 -0 -0 0 0 0 0 0 0 0 0 1 1 1 1 0 0 0 0 0 0 0 0 0 0 0 0
0 0 0 0 0 0 0 0 0 0 0 0 0 -0 -0 -0 0 0 0 0 0 0 0 0 0 0 0 1 1 1 0 0 0 0 0 0 0 0 0 -0 0 -0 -0
0 0 0 0 0 0 0 0 0 0 0 0 0 0 0 -0 -0 -0 -0 0 0 0 0 0 0 0 1 1 1 1 0 0 0 0 0 0 0 0 0 -0 0 0 0
0 0 0 0 0 0 0 0 0 0 0 0 0 0 0 0 0 0 -0 0 0 0 0 0 0 0 1 1 0 0 0 0 0 0 0 0 0 0 0 0 0 0 -0
0 0 0 0 0 0 0 0 0 0 0 0 0 0 0 0 0 0 0 0 0 0 0 0 0 0 0 0 0 0 0 0 0 0 0 0 0 0 0 0 0 0 0
0 0 0 0 0 0 0 0 0 0 0 0 0 0 0 0 0 0 0 0 0 0 0 0 0 0 0 0 0 0 0 0 0 0 0 0 0 0 0 0 0 0 0
0 0 0 0 0 0 0 0 0 0 0 0 0 0 0 0 0 0 0 0 0 0 0 0 0 0 0 0 0 0 0 0 0 0 0 0 0 0 0 0 0 0 0
0 0 0 0 0 0 0 0 0 0 0 0 0 0 0 0 0 0 0 0 0 0 0 0 0 0 0 0 0 0 0 0 0 0 0 0 0 0 0 0 0 0 0
Wind_Speed_500mb
10 16 24 27 28 34 38 40 36 36 41 45 47 46 42 35 28 27 30 24 27 29 30 30 29 28 24 25 31 34 43 42 39 42 41 30 23 29 25 23 26 29 32
15 23 27 30 28 29 36 35 35 37 41 45 47 44 38 32 28 28 28 25 26 27 27 32 30 30 25 23 30 34 36 44 39 41 43 36 30 35 28 26 27 32 34
14 17 25 30 31 30 29 31 34 39 44 44 46 42 40 34 33 28 28 29 27 27 28 28 31 29 26 21 27 31 32 37 37 35 40 43 42 37 27 27 29 31 34
14 22 22 20 22 27 28 28 35 40 42 45 45 45 43 37 36 35 31 32 29 26 28 27 29 31 30 24 23 30 30 34 41 39 34 40 59 45 29 26 29 32 34
19 22 18 19 24 29 28 32 36 39 44 47 49 48 44 43 39 38 35 32 32 28 24 29 28 26 31 29 24 30 28 31 38 43 44 33 32 40 38 29 30 33 34
23 22 21 26 26 25 29 35 40 42 47 49 45 47 43 37 36 39 37 36 34 29 28 29 32 30 33 32 28 28 30 30 37 37 43 46 32 31 39 37 35 32 34
22 25 23 21 22 29 34 35 43 49 53 51 46 45 49 41 39 36 38 41 39 35 28 32 33 35 31 32 30 30 30 34 34 31 28 50 54 47 45 35 34 37 36
19 18 17 19 24 29 35 41 45 52 56 56 54 49 52 45 40 37 34 35 40 40 29 32 37 35 34 32 30 33 29 34 32 31 43 54 41 41 41 38 34 35 35
19 20 20 23 32 34 36 43 53 60 58 55 52 50 52 47 46 44 39 32 33 36 32 36 42 38 39 35 33 33 31 33 35 32 40 52 49 51 43 35 32 35 37
23 23 28 31 33 36 44 53 52 46 48 54 50 42 47 47 48 50 44 42 34 35 38 37 44 43 41 38 35 36 33 33 38 40 39 58 51 47 45 40 38 40 37
23 26 31 33 34 42 45 45 44 43 37 39 41 49 57 59 53 49 47 42 40 37 41 40 43 48 42 40 35 38 36 36 37 41 36 66 59 53 45 49 47 41 41
24 28 31 32 34 37 40 42 41 38 33 25 30 39 40 47 51 57 58 54 50 38 36 42 44 48 44 41 36 40 42 35 41 41 37 53 52 47 47 48 44 41 41
27 28 28 30 28 34 34 37 37 26 22 24 27 23 26 34 37 49 55 48 45 38 38 40 46 49 46 42 39 44 43 39 48 48 40 48 57 52 47 45 45 44 45
27 26 31 28 27 35 32 32 31 22 17 20 15 11 11 12 14 21 31 35 38 36 34 37 43 46 45 43 43 49 45 45 48 47 53 54 51 54 52 49 49 49 50
27 25 29 27 27 31 27 30 26 22 17 11 7 5 7 7 4 14 22 27 28 30 34 37 44 44 44 43 45 52 51 54 50 51 62 65 59 54 49 50 52 54 53
26 24 24 26 28 31 23 27 22 19 17 12 4 3 5 7 7 10 16 23 26 29 33 36 38 40 43 44 47 52 54 58 59 55 59 60 61 54 51 53 58 58 53
23 26 27 26 29 26 22 23 20 16 14 10 2 3 7 7 9 10 17 23 26 29 32 33 34 37 44 44 49 55 58 59 58 55 59 65 60 51 54 56 56 57 55
19 27 28 26 27 25 22 22 17 16 11 9 5 2 6 8 9 13 20 24 27 29 32 35 35 38 40 45 53 58 60 62 61 66 68 56 47 56 54 54 54 54 53
17 27 30 28 28 24 24 19 17 16 13 8 6 6 12 12 13 15 18 22 27 30 33 33 35 38 42 48 55 61 61 61 59 61 61 52 48 49 48 52 51 53 50
16 24 31 29 28 27 22 21 18 17 13 11 6 6 5 5 9 14 21 25 28 30 32 36 37 44 48 55 61 63 63 58 54 50 44 62 56 53 48 46 45 45 46
19 16 26 25 31 32 22 21 21 17 16 11 9 8 12 6 11 13 21 29 27 29 35 42 50 53 58 64 69 61 49 58 54 53 61 58 56 51 45 42 45 41 41
18 11 20 20 26 34 24 20 23 25 21 14 18 22 21 25 24 14 17 24 25 39 43 48 55 64 67 67 75 74 60 67 49 48 55 46 48 47 47 45 43 40 37
15 12 16 18 24 27 24 19 25 29 25 18 24 24 24 25 34 30 31 26 24 43 50 53 60 68 73 70 71 45 56 36 63 50 49 47 47 48 46 40 37 34 34
12 13 12 19 22 20 26 22 27 30 37 30 29 35 38 39 40 42 30 17 35 49 52 58 69 69 76 85 64 68 41 81 57 48 53 47 43 41 34 31 33 32 22
11 12 8 16 18 15 24 29 35 29 31 31 28 17 23 28 27 28 32 40 34 37 54 52 57 74 78 76 75 66 41 60 68 67 63 51 45 42 40 33 30 29 26
12 8 3 12 14 12 17 24 29 31 30 30 30 23 8 11 23 20 23 38 33 32 44 50 42 49 58 56 52 59 66 71 70 79 71 51 42 34 26 23 21 24 22
Wind_Direction_500mb
221 260 255 259 281 291 293 297 295 302 308 309 311 311 303 285 269 257 265 266 264 252 250 236 232 232 228 216 214 212 214 203 200 199 202 190 195 183 165 156 153 144 138
226 234 254 269 270 271 286 291 294 298 301 308 312 311 307 290 269 252 253 255 253 256 248 238 233 233 228 220 214 216 216 209 203 201 201 199 197 167 167 164 158 144 145
246 239 259 264 255 271 293 293 293 299 300 301 309 306 304 287 269 249 246 252 248 245 247 244 233 232 227 222 216 217 218 207 206 203 205 198 181 156 164 162 151 148 148
288 298 285 274 285 286 279 279 287 291 290 295 300 301 299 293 266 254 246 244 251 245 248 247 238 232 227 217 217 214 218 216 210 205 209 196 153 147 151 155 152 155 145
308 315 304 290 292 288 282 281 283 285 290 294 295 294 286 285 262 250 248 241 246 252 239 246 244 237 225 218 209 216 211 212 206 205 201 181 138 148 142 149 155 149 143
323 313 299 297 281 273 279 276 283 285 285 288 280 278 272 265 254 245 245 245 244 248 236 233 243 233 228 220 205 211 207 201 199 194 203 204 159 153 137 159 161 151 147
292 287 286 266 262 283 282 283 287 290 291 280 270 267 265 257 249 245 247 247 245 247 249 224 230 233 225 219 210 205 207 203 200 193 189 168 169 158 153 161 165 157 154
283 286 282 283 290 296 296 293 291 291 287 279 273 264 266 256 240 242 251 255 245 242 242 237 224 227 221 218 211 207 206 203 202 191 175 177 165 154 161 167 166 154 154
296 297 297 302 307 306 296 291 291 292 289 279 276 271 265 251 244 243 253 251 250 241 232 232 219 220 215 214 209 202 202 199 204 198 191 176 176 167 168 174 171 162 159
301 304 310 312 310 299 297 299 297 295 287 277 272 265 257 255 250 247 248 249 261 241 231 237 217 217 212 209 207 200 196 201 201 203 192 183 179 168 176 181 175 172 166
306 313 319 318 309 304 307 309 303 296 292 277 268 263 262 262 257 252 245 246 253 244 228 222 218 210 207 209 204 197 192 201 198 198 194 185 183 165 172 177 168 163 166
325 334 327 317 312 317 318 320 314 302 293 287 275 271 268 262 258 252 251 248 251 233 230 220 213 205 204 206 198 192 191 192 191 185 177 173 159 159 173 170 167 170 169
339 337 332 326 316 329 328 331 330 318 306 298 296 280 269 261 256 240 240 230 221 218 217 215 204 201 202 201 194 189 186 179 185 186 179 171 158 161 177 177 175 173 164
342 348 343 335 321 325 325 332 344 336 312 309 311 302 281 278 238 219 212 210 211 213 212 204 200 196 198 197 191 186 184 176 178 177 168 158 162 171 175 177 174 165 157
348 348 355 343 340 334 329 336 339 336 337 323 325 19 27 48 138 174 183 192 197 207 201 197 194 194 195 194 193 187 182 176 177 169 166 162 167 174 174 172 168 158 151
354 0 351 346 349 342 342 348 350 344 344 325 276 33 52 84 103 146 171 184 194 192 190 194 194 193 194 194 194 186 180 180 184 173 166 163 153 157 169 170 162 155 152
6 7 360 356 356 350 351 356 355 358 3 12 98 140 147 144 164 187 188 189 183 180 181 185 190 194 194 195 190 182 179 179 179 176 168 170 157 171 172 166 160 155 152
15 12 4 1 5 3 3 0 356 6 354 357 1 217 215 216 205 219 196 187 187 183 184 187 190 196 191 188 185 181 179 179 171 166 156 151 172 170 165 161 159 154 152
21 17 6 359 4 4 7 360 13 18 11 355 332 281 262 264 244 220 204 191 185 188 189 192 188 190 175 180 179 174 174 174 176 168 162 164 166 163 163 158 159 154 153
25 20 14 14 8 2 358 3 14 24 23 19 4 335 321 259 211 194 193 187 179 192 191 185 183 174 175 174 171 173 173 171 174 175 181 168 161 160 161 158 158 154 155
27 23 15 20 22 17 14 23 41 31 19 347 12 23 352 263 195 179 191 195 195 190 189 176 178 165 160 170 168 168 173 168 159 150 153 154 160 158 158 170 155 159 154
35 38 18 22 19 22 24 33 42 26 32 27 54 66 58 74 138 155 172 183 181 158 162 169 170 163 164 170 156 146 134 148 154 162 165 163 163 164 164 162 152 159 153
45 51 33 36 19 25 28 45 54 33 47 58 71 80 72 95 84 84 124 131 156 153 160 162 165 159 165 170 164 147 135 140 151 163 166 160 154 153 153 150 146 144 143
64 56 53 36 20 35 36 48 74 47 57 72 88 79 82 78 78 77 109 150 141 161 150 164 171 174 171 158 162 154 160 160 147 114 146 147 150 147 142 146 152 158 165
101 64 76 33 31 55 54 54 60 64 61 62 76 81 74 77 78 78 62 81 126 133 152 158 148 166 170 155 162 164 161 159 156 146 129 135 143 146 157 164 172 179 173
161 90 66 31 26 54 60 55 55 53 60 76 82 101 98 101 87 62 75 99 106 112 134 148 150 156 161 174 171 172 169 163 163 158 149 144 146 140 142 148 147 155 149
Wind_Speed_850mb
10 16 24 27 28 34 38 40 36 36 41 45 47 46 42 35 28 27 30 24 27 29 30 30 29 28 24 25 31 34 43 42 39 42 41 30 23 29 25 23 26 29 32
15 23 27 30 28 29 36 35 35 37 41 45 47 44 38 32 28 28 28 25 26 27 27 32 30 30 25 23 30 34 36 44 39 41 43 36 30 35 28 26 27 32 34
14 17 25 30 31 30 29 31 34 39 44 44 46 42 40 34 33 28 28 29 27 27 28 28 31 29 26 21 27 31 32 37 37 35 40 43 42 37 27 27 29 31 34
14 22 22 20 22 27 28 28 35 40 42 45 45 45 43 37 36 35 31 32 29 26 28 27 29 31 30 24 23 30 30 34 41 39 34 40 59 45 29 26 29 32 34
19 22 18 19 24 29 28 32 36 39 44 47 49 48 44 43 39 38 35 32 32 28 24 29 28 26 31 29 24 30 28 31 38 43 44 33 32 40 38 29 30 33 34
23 22 21 26 26 25 29 35 40 42 47 49 45 47 43 37 36 39 37 36 34 29 28 29 32 30 33 32 28 28 30 30 37 37 43 46 32 31 39 37 35 32 34
22 25 23 21 22 29 34 35 43 49 53 51 46 45 49 41 39 36 38 41 39 35 28 32 33 35 31 32 30 30 30 34 34 31 28 50 54 47 45 35 34 37 36
19 18 17 19 24 29 35 41 45 52 56 56 54 49 52 45 40 37 34 35 40 40 29 32 37 35 34 32 30 33 29 34 32 31 43 54 41 41 41 38 34 35 35
19 20 20 23 32 34 36 43 53 60 58 55 52 50 52 47 46 44 39 32 33 36 32 36 42 38 39 35 33 33 31 33 35 32 40 52 49 51 43 35 32 35 37
23 23 28 31 33 36 44 53 52 46 48 54 50 42 47 47 48 50 44 42 34 35 38 37 44 43 41 38 35 36 33 33 38 40 39 58 51 47 45 40 38 40 37
23 26 31 33 34 42 45 45 44 43 37 39 41 49 57 59 53 49 47 42 40 37 41 40 43 48 42 40 35 38 36 36 37 41 36 66 59 53 45 49 47 41 41
24 28 31 32 34 37 40 42 41 38 33 25 30 39 40 47 51 57 58 54 50 38 36 42 44 48 44 41 36 40 42 35 41 41 37 53 52 47 47 48 44 41 41
27 28 28 30 28 34 34 37 37 26 22 24 27 23 26 34 37 49 55 48 45 38 38 40 46 49 46 42 39 44 43 39 48 48 40 48 57 52 47 45 45 44 45
27 26 31 28 27 35 32 32 31 22 17 20 15 11 11 12 14 21 31 35 38 36 34 37 43 46 45 43 43 49 45 45 48 47 53 54 51 54 52 49 49 49 50
27 25 29 27 27 31 27 30 26 22 17 11 7 5 7 7 4 14 22 27 28 30 34 37 44 44 44 43 45 52 51 54 50 51 62 65 59 54 49 50 52 54 53
26 24 24 26 28 31 23 27 22 19 17 12 4 3 5 7 7 10 16 23 26 29 33 36 38 40 43 44 47 52 54 58 59 55 59 60 61 54 51 53 58 58 53
23 26 27 26 29 26 22 23 20 16 14 10 2 3 7 7 9 10 17 23 26 29 32 33 34 37 44 44 49 55 58 59 58 55 59 65 60 51 54 56 56 57 55
19 27 28 26 27 25 22 22 17 16 11 9 5 2 6 8 9 13 20 24 27 29 32 35 35 38 40 45 53 58 60 62 61 66 68 56 47 56 54 54 54 54 53
17 27 30 28 28 24 24 19 17 16 13 8 6 6 12 12 13 15 18 22 27 30 33 33 35 38 42 48 55 61 61 61 59 61 61 52 48 49 48 52 51 53 50
16 24 31 29 28 27 22 21 18 17 13 11 6 6 5 5 9 14 21 25 28 30 32 36 37 44 48 55 61 63 63 58 54 50 44 62 56 53 48 46 45 45 46
19 16 26 25 31 32 22 21 21 17 16 11 9 8 12 6 11 13 21 29 27 29 35 42 50 53 58 64 69 61 49 58 54 53 61 58 56 51 45 42 45 41 41
18 11 20 20 26 34 24 20 23 25 21 14 18 22 21 25 24 14 17 24 25 39 43 48 55 64 67 67 75 74 60 67 49 48 55 46 48 47 47 45 43 40 37
15 12 16 18 24 27 24 19 25 29 25 18 24 24 24 25 34 30 31 26 24 43 50 53 60 68 73 70 71 45 56 36 63 50 49 47 47 48 46 40 37 34 34
12 13 12 19 22 20 26 22 27 30 37 30 29 35 38 39 40 42 30 17 35 49 52 58 69 69 76 85 64 68 41 81 57 48 53 47 43 41 34 31 33 32 22
11 12 8 16 18 15 24 29 35 29 31 31 28 17 23 28 27 28 32 40 34 37 54 52 57 74 78 76 75 66 41 60 68 67 63 51 45 42 40 33 30 29 26
12 8 3 12 14 12 17 24 29 31 30 30 30 23 8 11 23 20 23 38 33 32 44 50 42 49 58 56 52 59 66 71 70 79 71 51 42 34 26 23 21 24 22
Wind_Direction_850mb
221 260 255 259 281 291 293 297 295 302 308 309 311 311 303 285 269 257 265 266 264 252 250 236 232 232 228 216 214 212 214 203 200 199 202 190 195 183 165 156 153 144 138
226 234 254 269 270 271 286 291 294 298 301 308 312 311 307 290 269 252 253 255 253 256 248 238 233 233 228 220 214 216 216 209 203 201 201 199 197 167 167 164 158 144 145
246 239 259 264 255 271 293 293 293 299 300 301 309 306 304 287 269 249 246 252 248 245 247 244 233 232 227 222 216 217 218 207 206 203 205 198 181 156 164 162 151 148 148
288 298 285 274 285 286 279 279 287 291 290 295 300 301 299 293 266 254 246 244 251 245 248 247 238 232 227 217 217 214 218 216 210 205 209 196 153 147 151 155 152 155 145
308 315 304 290 292 288 282 281 283 285 290 294 295 294 286 285 262 250 248 241 246 252 239 246 244 237 225 218 209 216 211 212 206 205 201 181 138 148 142 149 155 149 143
323 313 299 297 281 273 279 276 283 285 285 288 280 278 272 265 254 245 245 245 244 248 236 233 243 233 228 220 205 211 207 201 199 194 203 204 159 153 137 159 161 151 147
292 287 286 266 262 283 282 283 287 290 291 280 270 267 265 257 249 245 247 247 245 247 249 224 230 233 225 219 210 205 207 203 200 193 189 168 169 158 153 161 165 157 154
283 286 282 283 290 296 296 293 291 291 287 279 273 264 266 256 240 242 251 255 245 242 242 237 224 227 221 218 211 207 206 203 202 191 175 177 165 154 161 167 166 154 154
296 297 297 302 307 306 296 291 291 292 289 279 276 271 265 251 244 243 253 251 250 241 232 232 219 220 215 214 209 202 202 199 204 198 191 176 176 167 168 174 171 162 159
301 304 310 312 310 299 297 299 297 295 287 277 272 265 257 255 250 247 248 249 261 241 231 237 217 217 212 209 207 200 196 201 201 203 192 183 179 168 176 181 175 172 166
306 313 319 318 309 304 307 309 303 296 292 277 268 263 262 262 257 252 245 246 253 244 228 222 218 210 207 209 204 197 192 201 198 198 194 185 183 165 172 177 168 163 166
325 334 327 317 312 317 318 320 314 302 293 287 275 271 268 262 258 252 251 248 251 233 230 220 213 205 204 206 198 192 191 192 191 185 177 173 159 159 173 170 167 170 169
339 337 332 326 316 329 328 331 330 318 306 298 296 280 269 261 256 240 240 230 221 218 217 215 204 201 202 201 194 189 186 179 185 186 179 171 158 161 177 177 175 173 164
342 348 343 335 321 325 325 332 344 336 312 309 311 302 281 278 238 219 212 210 211 213 212 204 200 196 198 197 191 186 184 176 178 177 168 158 162 171 175 177 174 165 157
348 348 355 343 340 334 329 336 339 336 337 323 325 19 27 48 138 174 183 192 197 207 201 197 194 194 195 194 193 187 182 176 177 169 166 162 167 174 174 172 168 158 151
354 0 351 346 349 342 342 348 350 344 344 325 276 33 52 84 103 146 171 184 194 192 190 194 194 193 194 194 194 186 180 180 184 173 166 163 153 157 169 170 162 155 152
6 7 360 356 356 350 351 356 355 358 3 12 98 140 147 144 164 187 188 189 183 180 181 185 190 194 194 195 190 182 179 179 179 176 168 170 157 171 172 166 160 155 152
15 12 4 1 5 3 3 0 356 6 354 357 1 217 215 216 205 219 196 187 187 183 184 187 190 196 191 188 185 181 179 179 171 166 156 151 172 170 165 161 159 154 152
21 17 6 359 4 4 7 360 13 18 11 355 332 281 262 264 244 220 204 191 185 188 189 192 188 190 175 180 179 174 174 174 176 168 162 164 166 163 163 158 159 154 153
25 20 14 14 8 2 358 3 14 24 23 19 4 335 321 259 211 194 193 187 179 192 191 185 183 174 175 174 171 173 173 171 174 175 181 168 161 160 161 158 158 154 155
27 23 15 20 22 17 14 23 41 31 19 347 12 23 352 263 195 179 191 195 195 190 189 176 178 165 160 170 168 168 173 168 159 150 153 154 160 158 158 170 155 159 154
35 38 18 22 19 22 24 33 42 26 32 27 54 66 58 74 138 155 172 183 181 158 162 169 170 163 164 170 156 146 134 148 154 162 165 163 163 164 164 162 152 159 153
45 51 33 36 19 25 28 45 54 33 47 58 71 80 72 95 84 84 124 131 156 153 160 162 165 159 165 170 164 147 135 140 151 163 166 160 154 153 153 150 146 144 143
64 56 53 36 20 35 36 48 74 47 57 72 88 79 82 78 78 77 109 150 141 161 150 164 171 174 171 158 162 154 160 160 147 114 146 147 150 147 142 146 152 158 165
101 64 76 33 31 55 54 54 60 64 61 62 76 81 74 77 78 78 62 81 126 133 152 158 148 166 170 155 162 164 161 159 156 146 129 135 143 146 157 164 172 179 173
161 90 66 31 26 54 60 55 55 53 60 76 82 101 98 101 87 62 75 99 106 112 134 148 150 156 161 174 171 172 169 163 163 158 149 144 146 140 142 148 147 155 149